User: anonymous
Location: Unspecified
(0.0000°N, 0.0000°E)
Time: 07:22:37
(UTC+02:00)
Language:

Ariane H10 - Orbit

View from above orbital plane
View from above orbital plane
View from above satellite
View from above satellite

Ground track
Ground track

The orbit data is extracted from the following two-line orbital elements,

1 21815U 91084C   14210.84228341  .00000192  00000-0  53197-3 0  5894
2 21815 003.6615 154.4392 7204809 296.9792 103.1122 02.31077221187935
Epoch (UTC): 29 July 2014 20:12:53
Eccentricity: 0.7204809
inclination: 3.6615°
perigee height: 377 km
apogee height: 35201 km
right ascension of ascending node: 154.4392°
argument of perigee: 296.9792°
revolutions per day: 2.31077221
mean anomaly at epoch: 103.1122°
orbit number at epoch: 18793

The dashed part of the orbit path shows where the satellite is in the earth's shadow,  

DLR